Ashtabula, OH

10:23 PM EDT on October 19, 2017 (GMT -0400)
Ashtabula County

Weather History for KHZY - February, 2013

Change the Weather History Date:

Wednesday, February 13, 2013

  Actual Average (KGKJ) Record (KGKJ)
Temperature  
Mean Temperature 29 °F -  
Max Temperature 34 °F 34 °F 63 °F (1984)
Min Temperature 23 °F 12 °F -11 °F (1958)
Degree Days  
Heating Degree Days 36    
Moisture  
Dew Point 22 °F    
Average Humidity 75    
Maximum Humidity 85    
Minimum Humidity 60    
Precipitation  
Precipitation 0.00 in - - ()
Sea Level Pressure  
Sea Level Pressure 29.82 in    
Wind  
Wind Speed 3 mph (WNW)    
Max Wind Speed 12 mph    
Max Gust Speed -    
Visibility 9 miles    
Events      
Averages and records for this station are not official NWS values.
T = Trace of Precipitation, MM = Missing Value Source: NWS Daily Summary

Daily Weather History Graph

Daily Weather History Graph

Search for Another Location

Airport or City:

Trip Planner

Search our weather history database for the weather conditions in past years. The results will help you decide how hot, cold, wet, or windy it might be!

Date:

Astronomy

Feb. 13, 2013 Rise Set
Actual Time 7:20 AM EST 5:53 PM EST
Civil Twilight 6:52 AM EST 6:22 PM EST
Nautical Twilight 6:19 AM EST 6:55 PM EST
Astronomical Twilight 5:47 AM EST 7:27 PM EST
Moon 8:45 AM EST (2/13) 9:59 PM EST (2/13)
Length of Visible Light 11h 30m
Length of Day
10h 33m
Waxing Crescent, 13% of the Moon is Illuminated
Feb 13
Waxing Crescent
Feb 17
First Quarter
Feb 25
Full
Mar 4
Last Quarter
Mar 11
New

Hourly Weather History & Observations

Time (EST) Temp. Windchill Dew Point Humidity Pressure Visibility Wind Dir Wind Speed Gust Speed Precip Events Conditions
12:53 AM 28.0 °F 24.2 °F 21.9 °F 78% 29.94 in 9.0 mi South 3.5 mph - N/A   Overcast
1:53 AM 28.0 °F 21.7 °F 21.9 °F 78% 29.93 in 9.0 mi South 5.8 mph - N/A   Overcast
2:37 AM 28.4 °F - 21.2 °F 74% 29.88 in 10.0 mi Calm Calm - N/A   Overcast
2:53 AM 28.9 °F - 23.0 °F 78% 29.91 in 10.0 mi Calm Calm - N/A   Overcast
3:53 AM 28.9 °F - 23.0 °F 78% 29.89 in 9.0 mi Calm Calm - N/A   Overcast
4:36 AM 28.4 °F - 23.0 °F 80% 29.86 in 7.0 mi Calm Calm - N/A   Overcast
4:53 AM 28.9 °F - 24.1 °F 82% 29.89 in 8.0 mi Calm Calm - N/A   Overcast
5:53 AM 28.9 °F - 23.0 °F 78% 29.89 in 7.0 mi Calm Calm - N/A   Overcast
6:53 AM 28.0 °F - 23.0 °F 81% 29.87 in 7.0 mi Calm Calm - N/A   Overcast
7:53 AM 28.0 °F - 24.1 °F 85% 29.87 in 5.0 mi Calm Calm - N/A   Overcast
8:53 AM 28.9 °F 25.2 °F 24.1 °F 82% 29.86 in 6.0 mi NNW 3.5 mph - N/A   Haze
9:53 AM 30.0 °F 24.1 °F 24.1 °F 79% 29.83 in 8.0 mi NNW 5.8 mph - N/A   Overcast
10:29 AM 30.2 °F 26.7 °F 23.0 °F 75% 29.80 in 10.0 mi NW 3.5 mph - N/A   Overcast
10:53 AM 30.0 °F - 23.0 °F 75% 29.84 in 10.0 mi Calm Calm - N/A   Overcast
11:24 AM 30.2 °F - 23.0 °F 75% 29.80 in 10.0 mi Calm Calm - N/A   Overcast
11:53 AM 30.9 °F 27.5 °F 23.0 °F 72% 29.82 in 10.0 mi SW 3.5 mph - N/A   Mostly Cloudy
12:39 PM 32.0 °F - 23.0 °F 69% 29.76 in 10.0 mi Calm Calm - N/A   Scattered Clouds
12:48 PM 33.8 °F - 24.8 °F 70% 29.76 in 10.0 mi Calm Calm - N/A   Mostly Cloudy
12:53 PM 33.1 °F - 23.0 °F 66% 29.79 in 10.0 mi Calm Calm - N/A   Mostly Cloudy
1:53 PM 34.0 °F - 23.0 °F 64% 29.77 in 10.0 mi Calm Calm - N/A   Mostly Cloudy
2:03 PM 33.8 °F 29.6 °F 23.0 °F 65% 29.74 in 10.0 mi North 4.6 mph - N/A   Scattered Clouds
2:15 PM 33.8 °F 29.6 °F 21.2 °F 60% 29.74 in 10.0 mi West 4.6 mph - N/A   Mostly Cloudy
2:53 PM 32.0 °F 23.0 °F 23.0 °F 69% 29.76 in 10.0 mi NNW 11.5 mph - N/A   Mostly Cloudy
3:08 PM 30.2 °F 20.8 °F 21.2 °F 69% 29.74 in 10.0 mi North 11.5 mph - N/A   Partly Cloudy
3:53 PM 30.0 °F 22.4 °F 21.9 °F 72% 29.77 in 10.0 mi NW 8.1 mph - N/A   Clear
4:53 PM 28.9 °F 23.9 °F 21.9 °F 75% 29.78 in 10.0 mi NW 4.6 mph - N/A   Partly Cloudy
5:17 PM 28.4 °F 22.2 °F 21.2 °F 74% 29.75 in 10.0 mi WNW 5.8 mph - N/A   Mostly Cloudy
5:53 PM 28.9 °F 23.9 °F 21.0 °F 72% 29.78 in 10.0 mi NNW 4.6 mph - N/A   Mostly Cloudy
6:04 PM 28.4 °F 23.3 °F 21.2 °F 74% 29.75 in 10.0 mi NNW 4.6 mph - N/A   Mostly Cloudy
6:32 PM 28.4 °F 24.6 °F 21.2 °F 74% 29.76 in 10.0 mi NNW 3.5 mph - N/A   Partly Cloudy
6:53 PM 27.0 °F 23.0 °F 21.0 °F 78% 29.80 in 10.0 mi NW 3.5 mph - N/A   Clear
7:53 PM 26.1 °F - 19.9 °F 78% 29.82 in 9.0 mi Calm Calm - N/A   Clear
8:53 PM 25.0 °F 20.7 °F 19.9 °F 81% 29.83 in 8.0 mi WSW 3.5 mph - N/A   Clear
9:16 PM 24.8 °F 20.5 °F 19.4 °F 80% 29.81 in 8.0 mi WSW 3.5 mph - N/A   Mostly Cloudy
9:53 PM 25.0 °F 19.3 °F 19.9 °F 81% 29.85 in 10.0 mi WSW 4.6 mph - N/A   Scattered Clouds
10:53 PM 24.1 °F 18.2 °F 19.0 °F 81% 29.85 in 9.0 mi SSW 4.6 mph - N/A   Clear
11:53 PM 23.0 °F 18.4 °F 19.0 °F 85% 29.86 in 8.0 mi SSW 3.5 mph - N/A   Clear